This is the latest recevied weather packets stored in our database for station/object WX4LTG. If no packets are shown the sender has not sent any weather packets the latest 10 day(s).
| Time | Temp. | Humidity | Pressure | Rain* | Wind** | Luminosity | Snow |
|---|---|---|---|---|---|---|---|
| 1777674750 | 31.11° C | 20% | 1009.1 hPa | 0 mm | - | 508 W/m² | - |
| 1777674446 | 30.56° C | 20% | 1009 hPa | 0 mm | - | 519 W/m² | - |
| 1777674144 | 30.56° C | 21% | 1009 hPa | 0 mm | - | 532 W/m² | - |
| 1777673840 | 30.56° C | 21% | 1008.9 hPa | 0 mm | - | 543 W/m² | - |
| 1777673537 | 30.56° C | 22% | 1009.2 hPa | 0 mm | - | 551 W/m² | - |
| 1777673235 | 30° C | 21% | 1009.2 hPa | 0 mm | - | 564 W/m² | - |
| 1777672932 | 30.56° C | 21% | 1009.2 hPa | 0 mm | - | 576 W/m² | - |
| 1777672629 | 30.56° C | 22% | 1009.1 hPa | 0 mm | - | 587 W/m² | - |
| 1777672324 | 30° C | 22% | 1009.2 hPa | 0 mm | - | 596 W/m² | - |
| 1777672019 | 30.56° C | 22% | 1009.2 hPa | 0 mm | - | 604 W/m² | - |
| 1777671715 | 30.56° C | 21% | 1009.6 hPa | 0 mm | - | 613 W/m² | - |
| 1777671412 | 30.56° C | 22% | 1009.3 hPa | 0 mm | - | 623 W/m² | - |
| 1777671108 | 30.56° C | 21% | 1009.6 hPa | 0 mm | - | 635 W/m² | - |
| 1777670804 | 30.56° C | 22% | 1009.6 hPa | 0 mm | - | 642 W/m² | - |
| 1777670501 | 30° C | 23% | 1009.6 hPa | 0 mm | - | 651 W/m² | - |
| 1777670198 | 30° C | 23% | 1009.6 hPa | 0 mm | - | 658 W/m² | - |
| 1777669896 | 30° C | 23% | 1009.9 hPa | 0 mm | - | 664 W/m² | - |
| 1777669592 | 29.44° C | 23% | 1009.8 hPa | 0 mm | - | 671 W/m² | - |
| 1777669288 | 30° C | 23% | 1009.9 hPa | 0 mm | - | 679 W/m² | - |
| 1777668985 | 30° C | 23% | 1009.9 hPa | 0 mm | - | 685 W/m² | - |
| 1777668683 | 29.44° C | 23% | 1009.9 hPa | 0 mm | - | 693 W/m² | - |
| 1777668379 | 29.44° C | 23% | 1010.1 hPa | 0 mm | - | 702 W/m² | - |
| 1777668075 | 30° C | 23% | 1010.1 hPa | 0 mm | - | 707 W/m² | - |
| 1777667772 | 29.44° C | 23% | 1010.2 hPa | 0 mm | - | 709 W/m² | - |
| 1777667470 | 29.44° C | 23% | 1010.2 hPa | 0 mm | - | 716 W/m² | - |
* Rain latest hour (hover to see other rain measurements)
** Current wind speed in m/s (hover to see current wind gust speed)